Warrenton, VA

4:44 PM EDT on April 20, 2018 (GMT -0400)
Warrenton

Weather History for KHWY - February, 2013

Change the Weather History Date:

Tuesday, February 19, 2013

  Actual Average (KHEF) Record (KHEF)
Temperature  
Mean Temperature 41 °F -  
Max Temperature 46 °F 46 °F 71 °F (1997)
Min Temperature 36 °F 25 °F 8 °F (2015)
Degree Days  
Heating Degree Days 24    
Moisture  
Dew Point 34 °F    
Average Humidity 77    
Maximum Humidity 100    
Minimum Humidity 51    
Precipitation  
Precipitation 0.00 in - - ()
Sea Level Pressure  
Sea Level Pressure 29.91 in    
Wind  
Wind Speed 9 mph (SSW)    
Max Wind Speed 15 mph    
Max Gust Speed 30 mph    
Visibility 10 miles    
Events Rain    
Averages and records for this station are not official NWS values.
T = Trace of Precipitation, MM = Missing Value Source: NWS Daily Summary

Daily Weather History Graph

Daily Weather History Graph

Search for Another Location

Airport or City:

Astronomy

Feb. 19, 2013 Rise Set
Actual Time 6:56 AM EST 5:53 PM EST
Civil Twilight 6:29 AM EST 6:20 PM EST
Nautical Twilight 5:58 AM EST 6:51 PM EST
Astronomical Twilight 5:27 AM EST 7:22 PM EST
Moon 12:25 PM EST (2/19) 2:24 AM EST (2/19)
Length of Visible Light 11h 51m
Length of Day
10h 57m
Waxing Gibbous, 67% of the Moon is Illuminated
Feb 19
Waxing Gibbous
Feb 25
Full
Mar 4
Last Quarter
Mar 11
New
Mar 19
First Quarter

Hourly Weather History & Observations

Time (EST) Temp. Windchill Dew Point Humidity Pressure Visibility Wind Dir Wind Speed Gust Speed Precip Events Conditions
12:15 AM 39.0 °F 34.8 °F 26.4 °F 61% 30.14 in 10.0 mi South 5.8 mph - N/A   Clear
12:55 AM 41.2 °F 35.0 °F 27.0 °F 57% 30.11 in 10.0 mi South 10.4 mph - N/A   Clear
1:15 AM 41.2 °F 35.0 °F 27.0 °F 57% 30.10 in 10.0 mi SSW 10.4 mph 16.1 mph N/A   Clear
1:35 AM 40.8 °F 35.6 °F 26.6 °F 57% 30.11 in 10.0 mi SSW 8.1 mph - N/A   Clear
1:55 AM 40.1 °F 35.3 °F 26.6 °F 59% 30.11 in 10.0 mi SSW 6.9 mph - N/A   Clear
2:15 AM 39.6 °F 37.4 °F 26.4 °F 59% 30.11 in 10.0 mi SSW 3.5 mph - N/A   Clear
2:35 AM 39.4 °F 36.1 °F 26.6 °F 60% 30.09 in 10.0 mi South 4.6 mph - N/A   Clear
2:55 AM 40.1 °F 34.7 °F 27.1 °F 60% 30.08 in 10.0 mi South 8.1 mph - N/A   Clear
3:15 AM 40.8 °F 34.5 °F 27.5 °F 59% 30.07 in 10.0 mi South 10.4 mph 16.1 mph N/A   Clear
3:35 AM 41.0 °F 33.9 °F 27.9 °F 60% 30.06 in 10.0 mi South 12.7 mph 18.4 mph N/A   Clear
3:55 AM 40.6 °F 33.4 °F 27.9 °F 60% 30.04 in 10.0 mi South 12.7 mph 17.3 mph N/A   Clear
4:15 AM 40.5 °F 33.6 °F 28.0 °F 61% 30.04 in 10.0 mi South 11.5 mph 19.6 mph N/A   Clear
4:35 AM 40.3 °F 34.4 °F 28.4 °F 63% 30.02 in 10.0 mi South 9.2 mph 16.1 mph N/A   Clear
4:55 AM 40.1 °F 34.1 °F 28.6 °F 63% 30.01 in 10.0 mi South 9.2 mph 16.1 mph N/A   Clear
5:15 AM 40.3 °F 34.4 °F 29.1 °F 64% 30.02 in 10.0 mi SSW 9.2 mph - N/A   Clear
5:35 AM 40.1 °F 34.7 °F 29.1 °F 65% 30.01 in 10.0 mi South 8.1 mph - N/A   Clear
5:55 AM 40.3 °F 34.4 °F 29.3 °F 65% 30.01 in 10.0 mi SSW 9.2 mph - N/A   Clear
6:15 AM 40.5 °F 34.1 °F 29.5 °F 65% 30.01 in 10.0 mi South 10.4 mph 18.4 mph N/A   Clear
6:35 AM 40.5 °F 33.2 °F 29.7 °F 65% 30.00 in 10.0 mi SSW 12.7 mph - N/A   Clear
6:55 AM 40.3 °F 33.4 °F 29.7 °F 66% 30.00 in 10.0 mi South 11.5 mph 19.6 mph N/A   Clear
7:35 AM 40.5 °F 32.8 °F 30.0 °F 66% 29.98 in 10.0 mi South 13.8 mph 21.9 mph N/A   Clear
7:55 AM 41.4 °F 34.7 °F 30.0 °F 64% 29.98 in 10.0 mi South 11.5 mph 23.0 mph N/A   Mostly Cloudy
8:15 AM 41.4 °F 35.2 °F 30.0 °F 64% 29.98 in 10.0 mi SSW 10.4 mph 18.4 mph N/A   Overcast
8:35 AM 41.9 °F 35.0 °F 30.0 °F 63% 29.99 in 10.0 mi SSW 12.7 mph 20.7 mph N/A   Overcast
8:55 AM 38.3 °F 29.7 °F 34.5 °F 86% 29.98 in 5.0 mi SSW 15.0 mph 29.9 mph N/A Rain Rain
9:15 AM 37.8 °F 31.3 °F 36.0 °F 93% 29.98 in 10.0 mi SSW 9.2 mph 19.6 mph N/A   Light Drizzle
9:35 AM 38.5 °F 30.7 °F 36.5 °F 93% 29.96 in 10.0 mi SSW 12.7 mph 19.6 mph N/A Rain Rain
9:55 AM 39.2 °F 32.0 °F 37.4 °F 93% 29.95 in 10.0 mi SSW 11.5 mph 17.3 mph N/A Rain Light Rain
10:15 AM 38.8 °F 32.6 °F 37.6 °F 95% 29.95 in 10.0 mi South 9.2 mph - N/A Rain Light Rain
10:35 AM 39.2 °F 31.2 °F 38.1 °F 96% 29.93 in 10.0 mi South 13.8 mph 18.4 mph N/A Rain Light Rain
10:55 AM 39.6 °F 31.7 °F 38.5 °F 96% 29.93 in 10.0 mi South 13.8 mph 20.7 mph N/A Rain Light Rain
11:15 AM 39.6 °F 31.7 °F 39.0 °F 98% 29.92 in 10.0 mi South 13.8 mph 17.3 mph N/A Rain Light Rain
11:35 AM 40.3 °F 33.9 °F 40.1 °F 99% 29.91 in 10.0 mi South 10.4 mph - N/A Rain Light Rain
12:15 PM 41.2 °F 35.5 °F 40.5 °F 97% 29.87 in 10.0 mi South 9.2 mph 18.4 mph N/A   Light Drizzle
12:35 PM 41.9 °F 35.0 °F 41.0 °F 97% 29.85 in 10.0 mi South 12.7 mph 18.4 mph N/A   Overcast
12:55 PM 42.8 °F 37.0 °F 41.9 °F 97% 29.84 in 10.0 mi SSW 10.4 mph - N/A   Light Drizzle
1:35 PM 43.7 °F 37.7 °F 42.6 °F 96% 29.81 in 10.0 mi SSW 11.5 mph 17.3 mph N/A   Light Drizzle
1:55 PM 44.1 °F 38.1 °F 43.0 °F 96% 29.79 in 10.0 mi SSW 11.5 mph 18.4 mph N/A   Light Drizzle
2:15 PM 44.2 °F 38.8 °F 43.2 °F 96% 29.78 in 10.0 mi SSW 10.4 mph - N/A   Overcast
2:35 PM 44.6 °F 39.7 °F 43.3 °F 95% 29.77 in 10.0 mi SSW 9.2 mph 17.3 mph N/A   Overcast
2:55 PM 45.0 °F 40.6 °F 43.7 °F 95% 29.75 in 10.0 mi SSW 8.1 mph - N/A   Overcast
3:15 PM 45.5 °F 41.3 °F 43.7 °F 93% 29.74 in 10.0 mi SSW 8.1 mph 19.6 mph N/A   Overcast
3:35 PM 46.0 °F 40.6 °F 44.2 °F 93% 29.73 in 10.0 mi SSW 11.5 mph 23.0 mph N/A   Overcast
3:55 PM 46.4 °F 40.7 °F 44.4 °F 93% 29.74 in 10.0 mi SSW 12.7 mph 18.4 mph N/A   Overcast
4:15 PM 46.6 °F - 44.4 °F 92% 29.74 in 10.0 mi SW 13.8 mph 18.4 mph N/A   Overcast
4:35 PM 46.4 °F 40.1 °F 44.2 °F 92% 29.74 in 10.0 mi SSW 15.0 mph 23.0 mph N/A   Overcast
4:55 PM 46.4 °F 40.7 °F 44.2 °F 92% 29.74 in 10.0 mi SW 12.7 mph 20.7 mph N/A   Mostly Cloudy
5:15 PM 45.5 °F 40.8 °F 43.7 °F 93% 29.76 in 10.0 mi SW 9.2 mph - N/A   Scattered Clouds
5:35 PM 46.2 °F 39.8 °F 43.5 °F 90% 29.74 in 10.0 mi SSW 15.0 mph 21.9 mph N/A   Mostly Cloudy
5:55 PM 45.9 °F 42.9 °F 43.9 °F 93% 29.75 in 10.0 mi SW 5.8 mph - N/A   Mostly Cloudy
6:15 PM 44.6 °F 42.2 °F 43.2 °F 95% 29.77 in 10.0 mi WNW 4.6 mph - N/A   Overcast
6:35 PM 44.4 °F 42.9 °F 43.2 °F 95% 29.78 in 10.0 mi SW 3.5 mph - N/A   Mostly Cloudy
7:35 PM 39.4 °F 37.2 °F 39.4 °F 100% 29.80 in 10.0 mi SSW 3.5 mph - N/A   Clear
7:55 PM 36.7 °F 34.1 °F 36.7 °F 100% 29.81 in 7.0 mi WSW 3.5 mph - N/A   Clear
8:15 PM 37.2 °F 34.7 °F 37.2 °F 100% 29.82 in 10.0 mi WSW 3.5 mph - N/A   Clear
8:55 PM 39.9 °F 34.5 °F 36.1 °F 86% 29.83 in 10.0 mi West 8.1 mph - N/A   Clear
9:15 PM 42.6 °F 39.0 °F 32.0 °F 66% 29.83 in 10.0 mi WSW 5.8 mph - N/A   Clear
9:35 PM 42.8 °F 38.6 °F 29.5 °F 59% 29.84 in 10.0 mi West 6.9 mph - N/A   Clear
9:55 PM 44.1 °F 37.4 °F 28.0 °F 53% 29.84 in 10.0 mi West 13.8 mph 23.0 mph N/A   Clear
10:15 PM 43.2 °F 39.7 °F 28.2 °F 56% 29.84 in 10.0 mi West 5.8 mph 17.3 mph N/A   Clear
10:35 PM 41.9 °F 35.9 °F 27.9 °F 58% 29.84 in 10.0 mi West 10.4 mph - N/A   Clear
10:55 PM 41.7 °F 35.2 °F 26.8 °F 55% 29.85 in 10.0 mi West 11.5 mph 16.1 mph N/A   Clear
11:15 PM 41.9 °F 36.3 °F 25.0 °F 51% 29.85 in 10.0 mi WNW 9.2 mph - N/A   Clear
11:35 PM 41.2 °F 35.5 °F 25.2 °F 53% 29.86 in 10.0 mi West 9.2 mph 16.1 mph N/A   Clear
11:55 PM 40.8 °F 35.0 °F 24.6 °F 53% 29.86 in 10.0 mi West 9.2 mph - N/A   Clear